GW3607 Weather Reports


time (UTC)temp
F
wind
direction
speed
knots
gust
knots
rain 1hr
in
rain 24hr
in
rain mn
in
humidity
%
barometer
mb
20260506013535 58 81 7.0 13.0 0.00 0.00 0.00 75 1029.5
20260506013044 58 121 6.1 14.8 0.00 0.00 0.00 75 1029.6
20260506012537 58 147 7.0 14.8 0.00 0.00 0.00 76 1029.5
20260506012035 58 137 7.0 14.8 0.00 0.00 0.00 76 1029.6
20260506011544 57 91 8.7 15.6 0.00 0.00 0.00 76 1029.5
20260506011040 57 88 7.0 15.6 0.00 0.00 0.00 77 1029.4
20260506010536 56 92 8.7 15.6 0.00 0.00 0.00 77 1029.3
20260506010048 56 88 7.8 15.6 0.00 0.00 0.00 78 1029.3
20260506005536 56 77 8.7 15.6 0.00 0.00 0.00 78 1029.2
20260506005037 55 83 8.7 15.6 0.00 0.00 0.00 79 1029.1
20260506004540 55 70 7.0 15.6 0.00 0.00 0.00 80 1029.1
20260506004035 55 60 7.8 15.6 0.00 0.00 0.00 80 1029.1
20260506003535 54 58 7.8 15.6 0.00 0.00 0.00 80 1029.1
20260506003039 54 85 7.8 16.5 0.00 0.00 0.00 81 1029.0
20260506002535 54 56 6.1 16.5 0.00 0.00 0.00 82 1029.0
20260506002036 53 97 7.0 16.5 0.00 0.00 0.00 82 1028.8
20260506001540 53 102 6.1 15.6 0.00 0.00 0.00 83 1028.9
20260506001035 52 85 7.8 15.6 0.00 0.00 0.00 83 1028.7
20260506000536 52 89 6.1 14.8 0.00 0.00 0.00 83 1028.7
20260506000040 52 93 7.8 14.8 0.00 0.00 0.00 83 1028.6
20260505235535 52 104 6.1 13.9 0.00 0.00 0.00 83 1028.5
20260505235035 52 45 5.2 13.9 0.00 0.00 0.00 84 1028.5
20260505234607 51 160 5.2 15.6 0.00 0.00 0.00 84 1028.3
20260505234035 51 109 6.1 15.6 0.00 0.00 0.00 84 1028.4
20260505233534 51 103 6.1 13.9 0.00 0.00 0.00 84 1028.4
20260505233045 51 95 5.2 13.9 0.00 0.00 0.00 84 1028.3
20260505232538 51 101 6.1 13.0 0.00 0.00 0.00 84 1028.1
20260505232035 51 137 7.0 13.0 0.00 0.00 0.00 84 1028.3
20260505231541 51 111 7.0 14.8 0.00 0.00 0.00 84 1028.2
20260505231038 51 103 6.1 14.8 0.00 0.00 0.00 84 1028.1
20260505230535 51 126 7.0 14.8 0.00 0.00 0.00 84 1028.1
20260505230042 51 95 6.1 13.9 0.00 0.00 0.00 83 1027.9
20260505225537 51 115 7.0 13.9 0.00 0.00 0.00 83 1027.9
20260505225035 51 104 6.1 13.9 0.00 0.00 0.00 83 1027.9
20260505224549 51 72 7.0 13.9 0.00 0.00 0.00 83 1027.8
20260505224036 51 116 6.1 14.8 0.00 0.00 0.00 83 1027.9
20260505223539 51 72 5.2 14.8 0.00 0.00 0.00 83 1027.7
20260505223055 51 81 6.1 14.8 0.00 0.00 0.00 83 1027.7
20260505222536 51 112 5.2 16.5 0.00 0.00 0.00 83 1027.6
20260505222036 51 121 6.1 16.5 0.00 0.00 0.00 83 1027.6
20260505221548 51 96 4.3 13.0 0.00 0.00 0.00 82 1027.6
20260505221035 51 126 5.2 13.0 0.00 0.00 0.00 82 1027.6
20260505220535 51 121 6.1 17.4 0.00 0.00 0.00 82 1027.6
20260505220048 51 118 5.2 17.4 0.00 0.00 0.00 82 1027.5
20260505215535 51 94 7.0 13.9 0.00 0.00 0.00 82 1027.4
20260505215035 51 91 7.0 14.8 0.00 0.00 0.00 82 1027.4
20260505214554 51 68 5.2 14.8 0.00 0.00 0.00 82 1027.4
20260505214035 51 102 6.1 13.0 0.00 0.00 0.00 82 1027.6
20260505213536 52 114 5.2 10.4 0.00 0.00 0.00 82 1027.4
20260505213043 51 110 5.2 13.0 0.00 0.00 0.00 82 1027.3
20260505212536 52 91 5.2 13.0 0.00 0.00 0.00 82 1027.4
20260505212038 52 109 6.1 14.8 0.00 0.00 0.00 82 1027.4
20260505211549 52 98 6.1 14.8 0.00 0.00 0.00 82 1027.4
20260505211036 52 88 6.1 17.4 0.00 0.00 0.00 82 1027.1
20260505210535 52 60 6.1 17.4 0.00 0.00 0.00 81 1027.1
20260505210041 52 107 7.8 17.4 0.00 0.00 0.00 81 1027.2
20260505205536 52 20 7.8 15.6 0.00 0.00 0.00 81 1027.0
20260505205036 52 118 6.1 15.6 0.00 0.00 0.00 81 1027.1
20260505204549 52 93 7.0 15.6 0.00 0.00 0.00 81 1027.0
20260505204035 52 110 7.0 13.9 0.00 0.00 0.00 81 1027.1
20260505203535 52 103 5.2 11.3 0.00 0.00 0.00 81 1027.0
20260505203102 52 115 6.1 12.2 0.00 0.00 0.00 81 1027.1
20260505202536 52 107 5.2 12.2 0.00 0.00 0.00 81 1027.0
20260505202036 52 107 6.1 16.5 0.00 0.00 0.00 81 1026.8
20260505201543 52 71 6.1 16.5 0.00 0.00 0.00 80 1026.8
20260505201037 53 134 6.1 15.6 0.00 0.00 0.00 80 1026.9
20260505200536 53 90 7.0 15.6 0.00 0.00 0.00 80 1026.8
20260505200040 53 107 7.0 13.9 0.00 0.00 0.00 80 1026.8
20260505195539 53 118 6.1 14.8 0.00 0.00 0.00 80 1026.8
20260505195035 53 68 6.1 14.8 0.00 0.00 0.00 80 1027.0
20260505194542 53 126 5.2 11.3 0.00 0.00 0.00 79 1026.8
20260505194037 53 105 5.2 12.2 0.00 0.00 0.00 79 1026.7
20260505193535 53 69 5.2 12.2 0.00 0.00 0.00 79 1026.8
20260505193045 53 83 6.1 12.2 0.00 0.00 0.00 79 1026.8
20260505192538 53 77 5.2 13.0 0.00 0.00 0.00 79 1026.9
20260505192035 53 101 5.2 14.8 0.00 0.00 0.00 78 1026.9
20260505191550 53 123 6.1 14.8 0.00 0.00 0.00 78 1026.9
20260505191034 53 107 5.2 13.9 0.00 0.00 0.00 78 1026.8
20260505190535 53 149 6.1 13.9 0.00 0.00 0.00 77 1026.8
20260505190043 54 99 4.3 13.9 0.00 0.00 0.00 77 1026.7
20260505185539 54 112 5.2 13.9 0.00 0.00 0.00 77 1026.8
20260505185036 54 123 7.0 13.9 0.00 0.00 0.00 76 1026.7
20260505184547 54 77 5.2 13.0 0.00 0.00 0.00 76 1026.8
20260505184036 54 122 6.1 13.9 0.00 0.00 0.00 76 1026.7
20260505183537 54 105 5.2 13.9 0.00 0.00 0.00 76 1026.7
20260505183045 54 94 5.2 13.9 0.00 0.00 0.00 75 1026.7
20260505182538 54 110 5.2 13.9 0.00 0.00 0.00 75 1026.8
20260505182035 54 104 6.1 13.0 0.00 0.00 0.00 75 1026.8
20260505181540 54 81 7.0 13.9 0.00 0.00 0.00 74 1026.7
20260505181039 54 80 6.1 13.9 0.00 0.00 0.00 74 1026.7
20260505180539 55 91 7.0 13.9 0.00 0.00 0.00 74 1026.7
20260505180042 55 97 5.2 16.5 0.00 0.00 0.00 74 1026.7
20260505175537 55 145 8.7 16.5 0.00 0.00 0.00 74 1026.6
20260505175035 55 118 6.1 15.6 0.00 0.00 0.00 73 1026.6
20260505174544 55 111 5.2 15.6 0.00 0.00 0.00 73 1026.6
20260505174036 55 97 5.2 16.5 0.00 0.00 0.00 73 1026.5
20260505173535 55 88 7.0 16.5 0.00 0.00 0.00 73 1026.5
20260505173039 55 60 7.8 14.8 0.00 0.00 0.00 72 1026.5
20260505172535 55 88 6.1 14.8 0.00 0.00 0.00 72 1026.5
20260505172035 56 109 7.0 16.5 0.00 0.00 0.00 72 1026.5
20260505171540 56 103 7.0 16.5 0.00 0.00 0.00 72 1026.5
20260505171036 56 66 7.0 16.5 0.00 0.00 0.00 72 1026.4
20260505170535 56 109 7.0 16.5 0.00 0.00 0.00 71 1026.3
20260505170040 56 100 6.1 17.4 0.00 0.00 0.00 71 1026.3
20260505165535 56 79 6.1 17.4 0.00 0.00 0.00 71 1026.3
20260505165037 57 72 7.0 13.9 0.00 0.00 0.00 71 1026.3
20260505164540 57 72 5.2 13.9 0.00 0.00 0.00 70 1026.4
20260505164036 57 125 6.1 13.9 0.00 0.00 0.00 70 1026.3
20260505163537 57 131 6.1 13.9 0.00 0.00 0.00 70 1026.2
20260505163046 57 122 5.2 13.9 0.00 0.00 0.00 70 1026.3
20260505162539 57 118 5.2 15.6 0.00 0.00 0.00 70 1026.2
20260505162035 58 67 5.2 15.6 0.00 0.00 0.00 69 1026.2
20260505161546 58 91 5.2 15.6 0.00 0.00 0.00 69 1026.1
20260505161036 58 82 5.2 13.0 0.00 0.00 0.00 69 1026.2
20260505160535 58 116 7.0 13.0 0.00 0.00 0.00 68 1026.0
20260505153053 59 130 4.3 11.3 0.00 0.00 0.00 67 1026.1
20260505152536 59 139 4.3 11.3 0.00 0.00 0.00 66 1026.1
20260505152035 59 89 3.5 11.3 0.00 0.00 0.00 66 1026.2
20260505151545 59 119 3.5 11.3 0.00 0.00 0.00 66 1026.1
20260505151035 59 133 3.5 13.0 0.00 0.00 0.00 66 1026.2
20260505150535 59 120 2.6 13.0 0.00 0.00 0.00 67 1026.1
20260505140535 59 122 2.6 7.0 0.00 0.00 0.00 66 1026.4
20260505125035 60 104 0.9 3.5 0.00 0.00 0.00 65 1026.4
20260505124551 59 99 0.9 4.3 0.00 0.00 0.00 66 1026.4
20260505124035 60 71 0.9 4.3 0.00 0.00 0.00 65 1026.3
20260505123536 60 0 0.0 3.5 0.00 0.00 0.00 66 1026.2
20260505123039 59 0 0.0 3.5 0.00 0.00 0.00 66 1026.3
20260505122535 59 105 0.0 1.7 0.00 0.00 0.00 66 1026.2
20260505122036 59 121 0.0 0.9 0.00 0.00 0.00 66 1026.2
20260505121548 59 0 0.0 0.0 0.00 0.00 0.00 67 1026.2
20260505121036 59 0 0.0 1.7 0.00 0.00 0.00 68 1026.2
20260505120536 59 0 0.0 1.7 0.00 0.00 0.00 68 1026.2
20260505120043 59 132 0.0 2.6 0.00 0.00 0.00 68 1026.2
20260505115534 59 132 0.9 2.6 0.00 0.00 0.00 68 1026.2
20260505115034 59 94 0.0 2.6 0.00 0.00 0.00 69 1026.3
20260505114540 59 0 0.0 0.0 0.00 0.00 0.00 70 1026.1
20260505114036 59 0 0.0 0.0 0.00 0.00 0.00 73 1026.1
20260505113535 58 0 0.0 0.0 0.00 0.00 0.00 75 1026.2
20260505113048 59 0 0.0 0.0 0.00 0.00 0.00 76 1026.2
20260505112535 59 0 0.0 0.0 0.00 0.00 0.00 76 1026.2
20260505112035 59 0 0.0 0.0 0.00 0.00 0.00 76 1026.2
20260505111545 59 0 0.0 0.0 0.00 0.00 0.00 76 1026.1
20260505111038 59 0 0.0 0.0 0.00 0.00 0.00 76 1026.0
20260505110534 60 0 0.0 0.0 0.00 0.00 0.00 75 1026.0
20260505102035 62 193 0.9 3.5 0.00 0.00 0.00 73 1025.6
20260505101546 62 0 0.0 2.6 0.00 0.00 0.00 72 1025.7
20260505101035 62 0 0.0 2.6 0.00 0.00 0.00 72 1025.6
20260505100535 62 180 0.0 2.6 0.00 0.00 0.00 71 1025.5
20260505100043 63 0 0.0 0.0 0.00 0.00 0.00 71 1025.5
20260505095535 63 0 0.0 3.5 0.00 0.00 0.00 70 1025.5
20260505095034 63 0 0.0 3.5 0.00 0.00 0.00 69 1025.4
20260505094538 63 161 0.0 0.0 0.00 0.00 0.00 67 1025.5
20260505094034 63 0 0.0 0.0 0.00 0.00 0.00 67 1025.5
20260505093535 64 0 0.0 0.0 0.00 0.00 0.00 67 1025.4
20260505093050 64 0 0.0 0.0 0.00 0.00 0.00 66 1025.3
20260505092535 65 0 0.0 0.0 0.00 0.00 0.00 64 1025.3
20260505092037 65 0 0.0 0.0 0.00 0.00 0.00 63 1025.3
20260505091539 66 0 0.0 1.7 0.00 0.00 0.00 62 1025.3
20260505091034 66 0 0.0 3.5 0.00 0.00 0.00 60 1025.2
20260505090535 66 0 0.0 3.5 0.00 0.00 0.00 61 1025.1
20260505090039 67 0 0.0 0.0 0.00 0.00 0.00 62 1025.2
20260505085537 67 0 0.0 0.0 0.00 0.00 0.00 61 1025.2
20260505085035 68 0 0.0 0.0 0.00 0.00 0.00 59 1025.1
20260505084538 68 0 0.0 0.0 0.00 0.00 0.00 58 1025.1
20260505084035 68 0 0.0 3.5 0.00 0.00 0.00 57 1025.1
20260505083538 69 0 0.0 3.5 0.00 0.00 0.00 55 1025.1
20260505083047 69 201 0.9 4.3 0.00 0.00 0.00 54 1025.2
20260505082536 70 156 0.0 4.3 0.00 0.00 0.00 53 1025.1
20260505082036 70 166 0.9 3.5 0.00 0.00 0.00 53 1025.1
20260505081540 71 243 0.9 4.3 0.00 0.00 0.00 53 1025.2
20260505081035 71 0 0.9 4.3 0.00 0.00 0.00 51 1024.9
20260505080536 71 0 0.9 4.3 0.00 0.00 0.00 52 1025.0
20260505080042 71 0 0.0 5.2 0.00 0.00 0.00 53 1025.1
20260505075534 71 220 1.7 5.2 0.00 0.00 0.00 51 1025.0
20260505075034 71 76 2.6 5.2 0.00 0.00 0.00 51 1024.9
20260505074540 72 139 0.9 4.3 0.00 0.00 0.00 51 1024.9
20260505074035 72 0 0.9 4.3 0.00 0.00 0.00 51 1025.0
20260505073535 72 206 0.0 4.3 0.00 0.00 0.00 50 1025.0
20260505073049 72 210 1.7 3.5 0.00 0.00 0.00 50 1024.9
20260505072535 73 0 0.9 2.6 0.00 0.00 0.00 48 1025.0
20260505072035 73 156 0.0 3.5 0.00 0.00 0.00 49 1025.0
20260505071542 73 0 0.0 3.5 0.00 0.00 0.00 51 1024.9
20260505071035 73 172 0.0 3.5 0.00 0.00 0.00 49 1025.0
20260505070535 73 93 0.9 4.3 0.00 0.00 0.00 49 1025.1
20260505070059 72 253 0.9 7.0 0.00 0.00 0.00 49 1025.0
20260505065536 72 215 0.9 7.0 0.00 0.00 0.00 49 1025.0
20260505065035 73 120 2.6 7.0 0.00 0.00 0.00 50 1024.9
20260505064540 72 124 0.9 4.3 0.00 0.00 0.00 51 1024.9
20260505064034 72 0 1.7 4.3 0.00 0.00 0.00 50 1024.9
20260505063534 72 314 0.9 3.5 0.00 0.00 0.00 48 1024.9
20260505063042 72 27 0.9 7.8 0.00 0.00 0.00 47 1024.9
20260505062535 73 212 1.7 7.8 0.00 0.00 0.00 49 1024.9
20260505062037 73 83 0.9 5.2 0.00 0.00 0.00 48 1024.9
20260505061611 71 81 1.7 5.2 0.00 0.00 0.00 49 1024.9
20260505061035 73 70 0.9 5.2 0.00 0.00 0.00 47 1024.8
20260505060536 73 59 0.9 6.1 0.00 0.00 0.00 50 1024.9
20260505060052 72 89 1.7 6.1 0.00 0.00 0.00 49 1024.9
20260505055535 72 208 0.9 5.2 0.00 0.00 0.00 50 1024.8
20260505055037 73 92 0.9 4.3 0.00 0.00 0.00 50 1024.9
20260505054548 71 151 0.9 3.5 0.00 0.00 0.00 51 1024.9
20260505054034 70 115 0.0 2.6 0.00 0.00 0.00 51 1024.9
20260505053534 71 0 0.9 2.6 0.00 0.00 0.00 50 1024.8
20260505053040 71 168 0.0 3.5 0.00 0.00 0.00 50 1024.9
20260505052534 71 0 0.0 3.5 0.00 0.00 0.00 51 1024.9
20260505052035 70 203 0.9 3.5 0.00 0.00 0.00 52 1025.0
20260505051543 70 91 0.9 3.5 0.00 0.00 0.00 50 1025.0
20260505051035 71 111 1.7 3.5 0.00 0.00 0.00 50 1025.3
20260505050534 73 126 0.9 4.3 0.00 0.00 0.00 51 1025.2
20260505041548 70 0 0.9 4.3 0.00 0.00 0.00 56 1026.0
20260505041039 70 338 1.7 6.1 0.00 0.00 0.00 58 1026.2
20260505040535 68 47 1.7 6.1 0.00 0.00 0.00 60 1026.1
20260505040059 69 81 0.9 7.0 0.00 0.00 0.00 58 1026.2
20260505035535 68 82 0.9 7.8 0.00 0.00 0.00 59 1026.3
20260505035037 68 87 3.5 7.8 0.00 0.00 0.00 60 1026.5
20260505034544 67 53 2.6 7.8 0.00 0.00 0.00 60 1026.5
20260505034035 67 90 3.5 7.0 0.00 0.00 0.00 61 1026.6
20260505033535 68 62 0.9 7.0 0.00 0.00 0.00 61 1026.6
20260505033100 68 64 0.9 7.0 0.00 0.00 0.00 60 1026.7
20260505032535 67 42 2.6 7.0 0.00 0.00 0.00 62 1026.7
20260505032036 67 37 0.9 7.0 0.00 0.00 0.00 63 1026.8
20260505031551 66 99 1.7 7.8 0.00 0.00 0.00 62 1026.7
20260505031034 66 74 1.7 7.8 0.00 0.00 0.00 64 1026.8
20260505030534 66 68 2.6 7.8 0.00 0.00 0.00 64 1026.7
20260505030043 65 121 1.7 7.0 0.00 0.00 0.00 64 1026.7
20260505025534 65 79 2.6 8.7 0.00 0.00 0.00 65 1026.8
20260505025038 64 337 3.5 9.6 0.00 0.00 0.00 66 1026.8
20260505024543 64 38 2.6 9.6 0.00 0.00 0.00 66 1026.8
20260505024035 64 12 2.6 10.4 0.00 0.00 0.00 67 1026.8
20260505023535 63 43 4.3 11.3 0.00 0.00 0.00 68 1026.7
20260505023043 63 68 4.3 11.3 0.00 0.00 0.00 68 1026.8
20260505022535 62 41 3.5 9.6 0.00 0.00 0.00 68 1026.8
20260505022035 62 95 4.3 9.6 0.00 0.00 0.00 69 1026.8
20260505021539 62 44 4.3 9.6 0.00 0.00 0.00 69 1026.7
20260505021035 62 62 4.3 9.6 0.00 0.00 0.00 70 1026.7
20260505020534 61 102 4.3 10.4 0.00 0.00 0.00 71 1026.8
20260505020042 61 81 4.3 12.2 0.00 0.00 0.00 71 1026.8
20260505015534 61 56 4.3 12.2 0.00 0.00 0.00 70 1026.8
20260505015034 60 91 5.2 13.0 0.00 0.00 0.00 71 1026.8
20260505014546 60 64 5.2 13.0 0.00 0.00 0.00 71 1026.7
20260505014035 60 74 5.2 13.0 0.00 0.00 0.00 71 1026.8